Station SDRT2 - 8773037 - Seadrift, TX Image indicating link to RSS feed of recent meteorological observations for station SDRT2


Conditions at SDRT2 as of
(8:30 am CDT)
1330 GMT on 07/15/2024:
     

Click on the graph icon in the table below to see a time series plot of the last five days of that observation.

5-day plot - Wind Direction Wind Direction (WDIR):SSE ( 150 deg true )
5-day plot - Wind Speed Wind Speed (WSPD): 11.1 kts
5-day plot - Wind Gust Wind Gust (GST): 13.0 kts
5-day plot - Atmospheric Pressure Atmospheric Pressure (PRES):30.05 in
5-day plot - Air Temperature Air Temperature (ATMP): 85.3 °F
5-day plot - Water Temperature Water Temperature (WTMP): 85.5 °F
5-day plot - Wind Speed at 10 Meters Wind Speed at 10 meters (WSPD10M): 11.7 kts
5-day plot - Wind Speed at 20 Meters Wind Speed at 20 meters (WSPD20M): 11.7 kts
5-day plot -  Wind Speed, Wind Gust and Atmospheric Pressure Combined plot of Wind Speed, Gust, and Air Pressure
Previous observations
TIME
(CDT)
5-day plot - Wind Direction
WDIR
 
5-day plot - Wind Speed
WSPD
kts
5-day plot - Wind Gust
GST
kts
5-day plot - Wave Height
WVHT
ft
5-day plot - Dominant Wave Period
DPD
sec
5-day plot - Average Wave Period
APD
sec
5-day plot - Mean Wave Direction
MWD
 
5-day plot - Atmospheric Pressure
PRES
in
5-day plot - Pressure Tendency
PTDY
in
5-day plot - Air Temperature
ATMP
°F
5-day plot - Water Temperature
WTMP
°F
5-day plot - Dew Point
DEWP
°F
5-day plot - Salinity
SAL
psu
5-day plot - Visibility
VIS
nmi
5-day plot - Tide (above MLLW)
TIDE
ft
2024-07-15 08:24 amSSE 11.1 12.0----30.05- 85.3 85.5----
2024-07-15 08:18 amSSE 11.1 13.0----30.05- 85.5 85.5----
2024-07-15 08:12 amSSE 11.1 12.0----30.04- 85.1 85.5----
2024-07-15 08:06 am S 11.1 12.0----30.04- 85.3 85.5----
2024-07-15 08:00 am S 11.1 13.0----30.04+0.02 85.1 85.5----
2024-07-15 07:54 amSSE 11.1 13.0----30.04- 85.1 85.5----
2024-07-15 07:48 amSSE 12.0 13.0----30.04- 85.1 85.5----
2024-07-15 07:42 am S 12.0 14.0----30.04- 84.9 85.5----
2024-07-15 07:36 am S 9.9 13.0----30.04- 84.9 85.6----
2024-07-15 07:30 am S 11.1 13.0----30.03- 85.3 85.6----
2024-07-15 07:24 amSSE 11.1 13.0----30.03- 85.1 85.6----
2024-07-15 07:18 amSSE 12.0 12.0----30.03- 84.9 85.6----
2024-07-15 07:12 am S 12.0 14.0----30.03- 85.1 85.6----
2024-07-15 07:06 amSSE 11.1 13.0----30.03- 84.9 85.6----
2024-07-15 07:00 am S 11.1 13.0----30.03+0.02 84.9 85.6----
2024-07-15 06:54 am S 11.1 12.0----30.03- 84.9 85.6----
2024-07-15 06:48 am S 11.1 12.0----30.03- 85.3 85.8----
2024-07-15 06:42 amSSE 12.0 13.0----30.02- 85.1 85.8----
2024-07-15 06:36 amSSE 11.1 12.0----30.02- 84.9 85.8----
2024-07-15 06:30 am S 9.9 12.0----30.02- 84.9 85.8----
2024-07-15 06:24 am S 11.1 12.0----30.02- 85.3 85.8----
2024-07-15 06:18 amSSE 9.9 11.1----30.02- 84.9 85.8----
2024-07-15 06:12 am S 9.9 12.0----30.02- 85.1 85.8----
2024-07-15 06:06 am S 9.9 12.0----30.02- 84.9 85.8----
2024-07-15 06:00 am S 11.1 13.0----30.02+0.00 84.9 85.8----
2024-07-15 05:54 am S 9.9 12.0----30.02- 84.9 86.0----
2024-07-15 05:48 am S 11.1 12.0----30.02- 85.1 86.0----
2024-07-15 05:42 am S 11.1 13.0----30.02- 84.9 86.0----
2024-07-15 05:36 am S 9.9 12.0----30.02- 84.9 86.0----
2024-07-15 05:30 am S 11.1 12.0----30.03- 84.9 86.0----
2024-07-15 05:24 am S 11.1 12.0----30.03- 85.1 86.0----
2024-07-15 05:18 am S 11.1 12.0----30.03- 84.9 86.0----
2024-07-15 05:12 am S 11.1 13.0----30.02- 85.1 86.2----
2024-07-15 05:06 am S 12.0 13.0----30.02- 84.9 86.2----
2024-07-15 05:00 am S 11.1 13.0----30.02+0.00 85.1 86.2----
2024-07-15 04:54 am S 11.1 12.0----30.02- 85.1 86.2----
2024-07-15 04:48 am S 11.1 12.0----30.02- 85.1 86.2----
2024-07-15 04:42 am S 11.1 12.0----30.02- 85.1 86.4----
2024-07-15 04:36 am S 11.1 13.0----30.01- 85.3 86.4----
2024-07-15 04:30 am S 12.0 14.0----30.01- 85.3 86.4----
2024-07-15 04:24 am S 12.0 14.0----30.01- 85.1 86.4----
2024-07-15 04:18 am S 12.0 14.0----30.01- 85.1 86.4----
2024-07-15 04:12 am S 11.1 12.0----30.01- 85.3 86.5----
2024-07-15 04:06 am S 11.1 13.0----30.01- 85.3 86.5----
2024-07-15 04:00 am S 12.0 13.0----30.01-0.03 85.1 86.5----
2024-07-15 03:54 am S 11.1 13.0----30.01- 85.3 86.5----
2024-07-15 03:48 am S 12.0 13.0----30.01- 85.1 86.5----
2024-07-15 03:42 am S 12.0 13.0----30.01- 85.3 86.5----
2024-07-15 03:36 am S 12.0 13.0----30.01- 85.3 86.5----
2024-07-15 03:30 am S 13.0 15.0----30.01- 85.3 86.7----
2024-07-15 03:24 amSSE 13.0 15.0----30.01- 85.3 86.7----
2024-07-15 03:18 amSSE 13.0 15.0----30.00- 85.3 86.7----
2024-07-15 03:12 amSSE 13.0 14.0----30.01- 85.5 86.7----
2024-07-15 03:06 amSSE 11.1 13.0----30.01- 85.5 86.7----
2024-07-15 03:00 am S 12.0 13.0----30.02-0.02 85.3 86.7----
2024-07-15 02:54 am S 12.0 14.0----30.02- 85.3 86.7----
2024-07-15 02:48 am S 12.0 14.0----30.02- 85.5 86.7----
2024-07-15 02:42 am S 11.1 13.0----30.02- 85.3 86.7----
2024-07-15 02:36 am S 12.0 13.0----30.02- 85.3 86.7----
2024-07-15 02:30 am S 12.0 13.0----30.02- 85.5 86.9----
2024-07-15 02:24 am S 11.1 13.0----30.02- 85.5 86.9----
2024-07-15 02:18 am S 12.0 14.0----30.02- 85.5 86.9----
2024-07-15 02:12 am S 11.1 13.0----30.02- 85.5 86.9----
2024-07-15 02:06 am S 11.1 14.0----30.02- 85.6 87.1----
2024-07-15 02:00 am S 13.0 15.0----30.02-0.01 85.6 87.1----
2024-07-15 01:54 am S 13.0 15.0----30.02- 85.6 87.3----
2024-07-15 01:48 am S 14.0 15.9----30.02- 85.6 87.3----
2024-07-15 01:42 am S 14.0 15.9----30.02- 85.6 87.3----
2024-07-15 01:36 am S 13.0 15.9----30.02- 85.8 87.3----
2024-07-15 01:30 am S 14.0 15.9----30.03- 85.8 87.4----
2024-07-15 01:24 am S 13.0 15.9----30.03- 85.8 87.4----
2024-07-15 01:18 am S 14.0 15.9----30.03- 85.6 87.4----
2024-07-15 01:12 am S 14.0 17.1----30.03- 85.8 87.4----
2024-07-15 01:06 am S 14.0 15.9----30.03- 85.8 87.6----
2024-07-15 01:00 am S 14.0 15.9----30.03+0.01 85.8 87.6----
2024-07-15 12:54 am S 14.0 15.9----30.04- 85.8 87.6----
2024-07-15 12:48 am S 13.0 15.0----30.04-- 87.6----
2024-07-15 12:42 amSSE 11.1 14.0----30.04-- 87.8----
2024-07-15 12:36 amSSE 12.0 14.0----30.04-- 87.8----
2024-07-15 12:30 amSSE 13.0 15.0----30.04- 85.8 87.8----
2024-07-15 12:24 am SE 11.1 14.0----30.04- 85.5 87.8----
2024-07-15 12:18 am SE 8.9 13.0----30.04- 85.6 88.0----
2024-07-15 12:12 amSSE 12.0 13.0----30.04- 85.8 88.0----
2024-07-15 12:06 amSSE 9.9 11.1----30.04- 85.5 88.0----
2024-07-15 12:00 am SE 8.9 12.0----30.04+0.01 85.3 88.0----
2024-07-14 11:54 pmSSE 8.9 11.1----30.04- 85.3 88.0----
2024-07-14 11:48 pm SE 7.0 8.9----30.04- 84.9 88.0----
2024-07-14 11:42 pm SE 8.0 11.1----30.04- 85.3 88.2----
2024-07-14 11:36 pm SE 7.0 11.1----30.04- 85.1 88.2----
2024-07-14 11:30 pmSSE 11.1 14.0----30.04-- 88.2----
2024-07-14 11:24 pmSSE 11.1 13.0----30.04-- 88.2----
2024-07-14 11:18 pmSSE 9.9 12.0----30.04- 85.6 88.2----
2024-07-14 11:12 pm SE 8.9 11.1----30.03- 85.6 88.3----
2024-07-14 11:06 pm SE 8.9 12.0----30.03- 85.3 88.3----
2024-07-14 11:00 pmSSE 8.9 12.0----30.03+0.00 85.5 88.3----
2024-07-14 10:54 pmSSE 9.9 13.0----30.03- 85.5 88.3----
2024-07-14 10:48 pmSSE 11.1 12.0----30.03- 85.6 88.3----
2024-07-14 10:42 pmSSE 8.9 11.1----30.03- 85.5 88.5----
2024-07-14 10:36 pmSSE 9.9 12.0----30.03- 85.8 88.5----
2024-07-14 10:30 pmSSE 9.9 12.0----30.03- 85.6 88.5----
2024-07-14 10:24 pm SE 8.9 12.0----30.03- 85.5 88.5----
2024-07-14 10:18 pmSSE 9.9 12.0----30.03- 85.5 88.7----
2024-07-14 10:12 pmSSE 8.9 11.1----30.03- 85.6 88.7----
2024-07-14 10:06 pm SE 9.9 12.0----30.03- 85.5 88.7----
2024-07-14 10:00 pm SE 9.9 12.0----30.03-0.01 85.8-----
2024-07-14 09:54 pm SE 11.1 14.0----30.03- 86.0-----
2024-07-14 09:48 pm-------30.03- 85.8 88.9----
2024-07-14 09:42 pm-------30.03- 85.6 88.9----
2024-07-14 09:36 pm-------30.03- 85.5 88.9----
2024-07-14 09:30 pm SE 9.9 12.0----30.03- 85.1 88.9----
2024-07-14 09:24 pm SE 9.9 12.0----30.03- 84.9 88.9----
2024-07-14 09:18 pm SE 8.9 12.0----30.03- 84.9 89.1----
2024-07-14 09:12 pm SE 8.9 11.1----30.03- 84.7 89.1----
2024-07-14 09:06 pm SE 9.9 12.0----30.03- 84.9 89.1----
2024-07-14 09:00 pm SE 8.0 9.9----30.03-0.03 85.1 89.1----
2024-07-14 08:54 pm SE 8.0 9.9----30.03- 84.9 89.1----
2024-07-14 08:48 pm SE 8.0 8.9----30.03- 84.9 89.1----
2024-07-14 08:42 pm SE 7.0 9.9----30.03- 85.1 89.1----
2024-07-14 08:36 pm SE 8.0 9.9----30.03- 84.9 89.2----
2024-07-14 08:30 pm SE 7.0 9.9----30.03- 85.3 89.2----
2024-07-14 08:24 pm SE 8.9 11.1----30.02- 85.3 89.2----
2024-07-14 08:18 pmESE 7.0 12.0----30.03-- 89.2----
2024-07-14 08:12 pm SE 8.9 12.0----30.03-- 89.4----
2024-07-14 08:06 pm SE 9.9 12.0----30.03-- 89.4----
2024-07-14 08:00 pm SE 12.0 14.0----30.03-0.02 86.0 89.4----
2024-07-14 07:54 pm SE 12.0 14.0----30.03- 86.0 89.4----
2024-07-14 07:48 pm SE 12.0 14.0----30.03-- 89.4----
2024-07-14 07:42 pm SE 11.1 13.0----30.03-- 89.6----
2024-07-14 07:36 pm SE 8.9 12.0----30.03-- 89.6----
2024-07-14 07:30 pm SE 8.0 12.0----30.04- 86.4 89.6----
2024-07-14 07:24 pm SE 9.9 12.0----30.04- 86.5 89.6----
2024-07-14 07:18 pmSSE 9.9 12.0----30.04-- 89.6----
2024-07-14 07:12 pm SE 9.9 12.0----30.04-- 89.6----
2024-07-14 07:06 pm SE 9.9 13.0----30.04-- 89.8----
2024-07-14 07:00 pm SE 9.9 13.0----30.04-0.04- 89.8----
2024-07-14 06:54 pm SE 8.9 11.1----30.04-- 89.8----
2024-07-14 06:48 pm SE 9.9 11.1----30.05- 86.5 89.8----
2024-07-14 06:42 pm SE 8.9 11.1----30.05- 86.5 89.8----
2024-07-14 06:36 pm SE 9.9 12.0----30.05- 86.7 89.8----
2024-07-14 06:30 pmESE 8.9 12.0----30.05-- 89.8----
2024-07-14 06:24 pm SE 11.1 13.0----30.05-- 89.8----
2024-07-14 06:18 pm SE 9.9 14.0----30.06- 87.1 89.8----
2024-07-14 06:12 pm SE 9.9 13.0----30.06- 87.1 90.0----
2024-07-14 06:06 pm SE 12.0 15.0----30.06- 87.1 89.8----
2024-07-14 06:00 pm SE 12.0 14.0----30.06-0.03 87.3 90.0----
2024-07-14 05:54 pm SE 11.1 14.0----30.06- 87.1 90.0----
2024-07-14 05:48 pm SE 11.1 15.9----30.06- 87.3 90.0----
2024-07-14 05:42 pm SE 13.0 15.0----30.06- 87.3 90.0----
2024-07-14 05:36 pm SE 12.0 15.0----30.06- 87.3 90.0----
2024-07-14 05:30 pm SE 9.9 14.0----30.06- 87.4 90.0----
2024-07-14 05:24 pm SE 12.0 15.0----30.06- 87.8 90.0----
2024-07-14 05:18 pm SE 12.0 15.0----30.06- 88.0 90.1----
2024-07-14 05:12 pm SE 13.0 15.9----30.06- 87.4 90.1----
2024-07-14 05:06 pm SE 14.0 18.1----30.05- 87.4 90.1----
2024-07-14 05:00 pm SE 12.0 15.9----30.06-0.04- 90.1----
2024-07-14 04:54 pm SE 13.0 15.9----30.05-- 90.1----
2024-07-14 04:48 pmSSE 12.0 15.0----30.05- 88.3 90.0----
2024-07-14 04:42 pm SE 11.1 14.0----30.06- 88.2 90.1----
2024-07-14 04:36 pm SE 11.1 13.0----30.06- 88.2 90.0----
2024-07-14 04:30 pm SE 11.1 13.0----30.06-- 90.0----
2024-07-14 04:24 pm SE 11.1 12.0----30.06-- 90.0----
2024-07-14 04:18 pm SE 11.1 15.0----30.06- 88.7 90.0----
2024-07-14 04:12 pm SE 9.9 13.0----30.07- 88.2 89.8----
2024-07-14 04:06 pmSSE 11.1 13.0----30.07- 88.0 89.8----
2024-07-14 04:00 pm SE 9.9 12.0----30.08-0.03 88.2 89.8----
2024-07-14 03:54 pm SE 12.0 15.0----30.07- 87.8 89.8----
2024-07-14 03:48 pm SE 11.1 13.0----30.08- 88.0 89.8----
2024-07-14 03:42 pm SE 12.0 13.0----30.08- 87.6 89.6----
2024-07-14 03:36 pm SE 8.9 14.0----30.08- 87.6 89.8----
2024-07-14 03:30 pm SE 11.1 13.0----30.08- 87.6 89.8----
2024-07-14 03:24 pmSSE 11.1 13.0----30.08- 87.6 89.8----
2024-07-14 03:18 pm SE 9.9 13.0----30.08-- 89.8----
2024-07-14 03:12 pmSSE 9.9 13.0----30.08-- 89.8----
2024-07-14 03:06 pm SE 8.9 12.0----30.09-- 89.8----
2024-07-14 03:00 pm SE 9.9 12.0----30.09-- 90.0----
2024-07-14 02:54 pm SE 9.9 14.0----30.09-- 90.0----
2024-07-14 02:48 pmSSE 11.1 14.0----30.09- 87.4 90.0----
2024-07-14 02:42 pmSSE 9.9 12.0----30.09- 87.6 89.8----
2024-07-14 02:36 pmSSE 9.9 13.0----30.09- 87.8 89.8----
2024-07-14 02:30 pmSSE 11.1 14.0----30.09-- 90.0----
2024-07-14 02:24 pmSSE 9.9 13.0----30.09-- 90.0----
2024-07-14 02:18 pmSSE 11.1 13.0----30.09- 87.3 90.0----
2024-07-14 02:12 pmSSE 9.9 13.0----30.09- 87.4 90.0----
2024-07-14 02:06 pm S 9.9 11.1----30.10- 87.6 90.0----
2024-07-14 02:00 pm S 9.9 12.0----30.10-0.02 87.8 90.0----
2024-07-14 01:54 pm S 11.1 12.0----30.10- 88.0 90.0----
2024-07-14 01:48 pm S 8.9 11.1----30.10- 88.0 89.8----
2024-07-14 01:42 pmSSE 8.0 11.1----30.10- 88.2 89.8----
2024-07-14 01:36 pmSSE 8.0 9.9----30.10- 88.2 89.6----
2024-07-14 01:30 pmSSE 9.9 12.0----30.10-- 89.4----
2024-07-14 01:24 pm S 8.9 12.0----30.10-- 89.1----
2024-07-14 01:18 pm S 9.9 11.1----30.10-------
2024-07-14 01:12 pm S 8.9 11.1----30.11-------
2024-07-14 01:06 pm S 8.0 8.9----30.11-------
2024-07-14 01:00 pm S 7.0 8.9----30.11-0.01 87.3 88.3----
2024-07-14 12:54 pmSSE 7.0 9.9----30.11- 87.1 88.2----
2024-07-14 12:48 pm S 8.0 9.9----30.11-- 88.0----
2024-07-14 12:42 pmSSE 8.9 9.9----30.11-- 87.8----
2024-07-14 12:36 pmSSE 8.0 8.9----30.11-- 87.8----
2024-07-14 12:30 pmSSE 8.0 8.9----30.11-- 87.8----
2024-07-14 12:24 pmSSE 6.0 8.0----30.11-- 87.6----
2024-07-14 12:18 pmSSE 6.0 8.0----30.11- 86.2 87.6----
2024-07-14 12:12 pmSSE 7.0 8.0----30.12- 86.2 87.3----
2024-07-14 12:06 pm S 7.0 8.9----30.12- 86.0 87.1----
2024-07-14 12:00 pm S 7.0 8.9------ 86.2 87.1----
2024-07-14 11:54 am S 8.0 8.0------ 86.2 87.1----
2024-07-14 11:48 am S 6.0 7.0----30.11- 85.8 86.9----
2024-07-14 11:42 am S 5.1 6.0----30.12- 85.6 86.9----
2024-07-14 11:36 amSSW 5.1 5.1----30.12- 85.8 86.5----
2024-07-14 11:30 amSSW 5.1 6.0----30.12- 85.6 86.4----
2024-07-14 11:24 amSSW 5.1 6.0----30.12- 85.6 86.4----
2024-07-14 11:18 am-------30.12- 85.8 86.2----
2024-07-14 11:12 am-------30.12- 85.8 86.2----
2024-07-14 11:06 am-------30.12- 85.8 86.0----
2024-07-14 11:00 amSSW 1.9 2.9----30.12+0.01 85.6 86.0----
2024-07-14 10:54 amSSW 2.9 2.9----30.12- 85.5 85.8----
2024-07-14 10:48 am S 2.9 4.1----30.12-- 85.8----
2024-07-14 10:42 amSSW 1.9 2.9----30.12-- 85.6----
2024-07-14 10:36 amSSW 1.9 4.1----30.12-- 85.5----
2024-07-14 10:30 amSSW 1.9 1.9----30.12- 85.5 85.5----
2024-07-14 10:24 amSSW 1.9 4.1----30.12- 85.5 85.3----
2024-07-14 10:18 am S 1.9 4.1----30.12- 85.3 85.3----
2024-07-14 10:12 am S 4.1 4.1----30.12- 85.3 85.3----
2024-07-14 10:06 am S 1.9 4.1----30.12- 85.5 85.3----
2024-07-14 10:00 am S 2.9 5.1----30.12+0.02 85.3 85.1----
2024-07-14 09:54 am S 4.1 5.1----30.12- 85.1 85.1----
2024-07-14 09:48 am S 5.1 5.1------ 84.9 85.1----
2024-07-14 09:42 am S 4.1 5.1------ 84.7 85.1----
2024-07-14 09:36 am S 4.1 5.1------ 84.9 85.1----
2024-07-14 09:30 am S 5.1 6.0----30.12- 84.9 85.1----
2024-07-14 09:24 am S 4.1 5.1----30.12- 84.9 85.1----
2024-07-14 09:18 am S 4.1 5.1----30.12- 84.7 85.1----
2024-07-14 09:12 am S 2.9 4.1----30.12- 84.7 85.1----
2024-07-14 09:06 am S 2.9 4.1----30.12- 84.7 85.1----
2024-07-14 09:00 am-------30.12+0.04 84.4 85.1----
2024-07-14 08:54 am-------30.12- 84.2 84.9----